Location: Brachstadt
(48.6975°N, 10.6755°E)
Time: 12:26:35
(UTC+00:00)

Envisat - Pass Details

Date: 05 December 2022
Orbit: 763 x 765 km, 98.2° (Epoch: 06 February)

Event Time Altitude Azimuth Distance (km) Brightness Sun altitude
Rises 03:04:41 0° 19° (NNE) 3,246 6.5 -36.7°
Reaches altitude 10° 03:07:07 10° 26° (NNE) 2,315 5.8 -36.3°
Enters shadow 03:08:31 18° 33° (NNE) 1,809 5.2 -36.1°
